DW8343 Weather Reports


Display with metric or nautical units.
time (UTC)temp
F
wind
direction
speed
MPH
gust
MPH
rain 1hr
in
rain 24hr
in
rain mn
in
humidity
%
barometer
mb
20260906100336 78 29 0.0 0.0 0.00 0.00 0.00 72 1014.9
20260906095831 77 29 0.0 0.0 0.00 0.00 0.00 72 1015.0
20260906095327 78 28 0.0 0.0 0.00 0.00 0.00 73 1015.0
20260906094826 78 29 0.0 0.0 0.00 0.00 0.00 72 1015.0
20260906094321 77 29 0.0 0.0 0.00 0.00 0.00 73 1015.0
20260906093817 77 28 0.0 0.0 0.00 0.00 0.00 73 1014.9
20260906093313 78 29 0.0 0.0 0.00 0.00 0.00 73 1014.8
20260906092808 78 29 0.0 0.0 0.00 0.00 0.00 73 1014.8
20260906092305 78 28 0.0 0.0 0.00 0.00 0.00 72 1015.0
20260906091758 78 29 0.0 0.0 0.00 0.00 0.00 72 1014.8
20260906091254 78 29 0.0 0.0 0.00 0.00 0.00 72 1015.0
20260906090750 78 29 0.0 0.0 0.00 0.00 0.00 72 1014.9
20260906090249 78 29 0.0 0.0 0.00 0.00 0.00 72 1015.0
20260906085749 78 29 0.0 0.0 0.00 0.00 0.00 73 1014.9
20260906085248 78 29 0.0 0.0 0.00 0.00 0.00 72 1015.0
20260906084742 78 29 0.0 0.0 0.00 0.00 0.00 72 1014.9
20260906084236 79 29 0.0 0.0 0.00 0.00 0.00 71 1014.8
20260906083731 79 29 0.0 0.0 0.00 0.00 0.00 71 1014.8
20260906083227 78 29 0.0 0.0 0.00 0.00 0.00 70 1014.8
20260906082722 79 29 0.0 0.0 0.00 0.00 0.00 70 1014.6
20260906082217 78 29 0.0 0.0 0.00 0.00 0.00 70 1014.7
20260906081713 79 29 0.0 0.0 0.00 0.00 0.00 70 1014.8
20260906081208 79 29 0.0 0.0 0.00 0.00 0.00 71 1014.7
20260906080704 79 29 0.0 0.0 0.00 0.00 0.00 70 1014.8
20260906080200 79 29 0.0 0.0 0.00 0.00 0.00 69 1014.7
20260906075659 79 29 0.0 0.0 0.00 0.00 0.00 71 1014.6
20260906075149 79 29 0.0 0.0 0.00 0.00 0.00 71 1014.9
20260906074644 79 29 0.0 0.0 0.00 0.00 0.00 70 1014.8
20260906074143 80 29 0.0 0.0 0.00 0.00 0.00 70 1014.8
20260906073638 79 29 0.0 0.0 0.00 0.00 0.00 69 1014.9
20260906073134 80 29 0.0 0.0 0.00 0.00 0.00 69 1014.8
20260906072629 80 29 0.0 0.0 0.00 0.00 0.00 69 1014.8
20260906072125 80 29 0.0 0.0 0.00 0.00 0.00 69 1014.8
20260906071621 80 29 0.0 0.0 0.00 0.00 0.00 69 1014.8
20260906071120 80 29 0.0 0.0 0.00 0.00 0.00 68 1014.9
20260906070612 80 29 0.0 0.0 0.00 0.00 0.00 67 1014.8
20260906070107 80 29 0.0 0.0 0.00 0.00 0.00 67 1014.9
20260906065606 80 29 0.0 0.0 0.00 0.00 0.00 66 1014.8
20260906065102 81 29 0.0 0.0 0.00 0.00 0.00 65 1014.8
20260906064557 81 29 0.0 0.0 0.00 0.00 0.00 65 1014.7
20260906064052 81 29 0.0 0.0 0.00 0.00 0.00 64 1014.9
20260906063547 81 29 0.0 0.0 0.00 0.00 0.00 63 1014.7
20260906063043 82 29 0.0 0.0 0.00 0.00 0.00 63 1014.9
20260906062539 82 29 0.0 0.0 0.00 0.00 0.00 63 1014.9
20260906062032 82 29 0.0 0.0 0.00 0.00 0.00 63 1014.8
20260906061529 82 29 0.0 0.0 0.00 0.00 0.00 61 1014.9
20260906061028 82 29 0.0 0.0 0.00 0.00 0.00 61 1014.9
20260906060525 82 29 0.0 0.0 0.00 0.00 0.00 62 1014.9
20260906060021 82 29 0.0 0.0 0.00 0.00 0.00 63 1015.0
20260906055518 83 28 0.0 0.0 0.00 0.00 0.00 64 1015.0
20260906055013 82 29 0.0 0.0 0.00 0.00 0.00 61 1014.8
20260906054513 82 29 0.0 0.0 0.00 0.00 0.00 63 1014.7
20260906054008 82 29 0.0 0.0 0.00 0.00 0.00 63 1014.7
20260906053504 82 29 0.0 0.0 0.00 0.00 0.00 64 1014.9
20260906053000 82 28 0.0 0.0 0.00 0.00 0.00 64 1014.8
20260906052455 82 29 0.0 0.0 0.00 0.00 0.00 64 1014.3
20260906051952 82 29 0.0 0.0 0.00 0.00 0.00 65 1014.5
20260906051447 82 29 0.0 0.0 0.00 0.00 0.00 65 1014.6
20260906050943 82 29 0.0 0.0 0.00 0.00 0.00 65 1014.5
20260906050442 82 29 0.0 0.0 0.00 0.00 0.00 64 1014.5
20260906045942 82 29 0.0 0.0 0.00 0.00 0.00 64 1014.6
20260906045440 82 29 0.0 0.0 0.00 0.00 0.00 63 1014.4
20260906044937 82 29 0.0 0.0 0.00 0.00 0.00 62 1014.5
20260906044432 83 29 0.0 0.0 0.00 0.00 0.00 61 1014.7
20260906043927 83 29 0.0 0.0 0.00 0.00 0.00 60 1014.5
20260906043423 83 29 0.0 0.0 0.00 0.00 0.00 60 1014.4
20260906042919 84 29 0.0 0.0 0.00 0.00 0.00 59 1014.5
20260906042418 84 29 0.0 0.0 0.00 0.00 0.00 59 1014.5
20260906041913 84 29 0.0 0.0 0.00 0.00 0.00 58 1014.7
20260906041409 85 29 0.0 0.0 0.00 0.00 0.00 57 1014.7
20260906040909 86 29 0.0 0.0 0.00 0.00 0.00 56 1014.6
20260906040404 86 28 0.0 0.0 0.00 0.00 0.00 56 1014.6
20260906035859 86 28 0.0 0.0 0.00 0.00 0.00 55 1014.8
20260906035355 87 29 0.0 0.0 0.00 0.00 0.00 54 1014.5
20260906034849 87 28 0.0 0.0 0.00 0.00 0.00 52 1014.5
20260906034344 87 28 0.0 0.0 0.00 0.00 0.00 53 1014.7
20260906033840 88 29 0.0 0.0 0.00 0.00 0.00 51 1014.6
20260906033339 88 28 0.0 0.0 0.00 0.00 0.00 52 1014.4
20260906032836 88 28 0.0 0.0 0.00 0.00 0.00 51 1014.5
20260906032332 88 28 0.0 0.0 0.00 0.00 0.00 51 1014.5
20260906031827 89 28 0.0 0.0 0.00 0.00 0.00 51 1014.5
20260906031322 89 28 0.0 0.0 0.00 0.00 0.00 50 1014.5
20260906030821 89 28 0.0 1.0 0.00 0.00 0.00 50 1014.5
20260906030317 89 28 0.0 0.0 0.00 0.00 0.00 51 1014.4
20260906025817 89 28 0.0 0.0 0.00 0.00 0.00 50 1014.3
20260906025311 89 28 0.0 0.0 0.00 0.00 0.00 50 1014.4
20260906024810 89 28 0.0 1.0 0.00 0.00 0.00 50 1014.4
20260906024304 88 28 0.0 0.0 0.00 0.00 0.00 51 1014.3
20260906023759 88 28 0.0 0.0 0.00 0.00 0.00 51 1014.2
20260906023254 88 28 0.0 0.0 0.00 0.00 0.00 51 1014.3
20260906022750 88 28 0.0 0.0 0.00 0.00 0.00 52 1014.2
20260906022245 88 28 0.0 0.0 0.00 0.00 0.00 53 1014.0
20260906021741 88 28 0.0 0.0 0.00 0.00 0.00 53 1014.0
20260906021240 89 28 0.0 0.0 0.00 0.00 0.00 52 1014.0
20260906020735 89 28 0.0 0.0 0.00 0.00 0.00 52 1014.0
20260906020235 89 28 0.0 0.0 0.00 0.00 0.00 51 1013.8
20260906015730 90 28 0.0 0.0 0.00 0.00 0.00 50 1013.8
20260906015228 90 28 0.0 0.0 0.00 0.00 0.00 49 1013.7
20260906014723 91 28 0.0 0.0 0.00 0.00 0.00 49 1013.8
20260906014219 91 28 0.0 0.0 0.00 0.00 0.00 48 1013.7
20260906013714 92 28 0.0 0.0 0.00 0.00 0.00 46 1013.8
20260906013214 92 28 0.0 0.0 0.00 0.00 0.00 45 1013.7
20260906012709 93 28 0.0 0.0 0.00 0.00 0.00 44 1013.6
20260906012204 93 29 0.0 0.0 0.00 0.00 0.00 44 1013.5
20260906011659 94 29 0.0 2.0 0.00 0.00 0.00 43 1013.6
20260906011154 94 56 0.0 0.0 0.00 0.00 0.00 43 1013.5
20260906010649 94 57 0.0 1.0 0.00 0.00 0.00 43 1013.4
20260906010146 94 322 0.0 0.0 0.00 0.00 0.00 43 1013.3
20260906005645 95 322 1.0 1.0 0.00 0.00 0.00 43 1013.2
20260906005144 95 321 0.0 1.0 0.00 0.00 0.00 41 1013.3
20260906004643 96 321 1.0 2.0 0.00 0.00 0.00 41 1013.1
20260906004139 96 51 2.0 2.0 0.00 0.00 0.00 41 1013.2
20260906003634 96 0 1.0 3.0 0.00 0.00 0.00 40 1013.2
20260906003130 96 1 1.0 3.0 0.00 0.00 0.00 40 1013.2
20260906002625 97 232 0.0 1.0 0.00 0.00 0.00 40 1013.2
20260906002119 97 76 1.0 2.0 0.00 0.00 0.00 40 1013.2
20260906001609 97 71 1.0 1.0 0.00 0.00 0.00 39 1013.2
20260906001108 97 322 0.0 1.0 0.00 0.00 0.00 39 1013.1
20260906000605 97 328 0.0 2.0 0.00 0.00 0.00 39 1013.1
20260906000100 98 316 1.0 3.0 0.00 0.00 0.00 38 1013.0
20260905235559 98 290 0.0 4.0 0.00 0.00 0.00 38 1013.1
20260905235054 99 33 0.0 3.0 0.00 0.00 0.00 38 1012.8
20260905234549 99 58 1.0 3.0 0.00 0.00 0.00 38 1013.1
20260905234044 98 252 1.0 2.0 0.00 0.00 0.00 37 1013.1
20260905233539 98 239 0.0 2.0 0.00 0.00 0.00 39 1012.8
20260905233039 99 63 0.0 2.0 0.00 0.00 0.00 38 1012.8
20260905232534 99 320 2.0 4.0 0.00 0.00 0.00 39 1013.0
20260905232030 99 11 1.0 3.0 0.00 0.00 0.00 38 1012.6
20260905231525 99 46 2.0 6.0 0.00 0.00 0.00 38 1012.7
20260905231021 100 221 0.0 3.0 0.00 0.00 0.00 38 1012.7
20260905230520 100 81 2.0 4.0 0.00 0.00 0.00 37 1012.6
20260905230019 100 221 0.0 2.0 0.00 0.00 0.00 37 1012.6
20260905225514 100 35 1.0 3.0 0.00 0.00 0.00 38 1012.5
20260905225009 100 311 0.0 3.0 0.00 0.00 0.00 36 1012.7
20260905224504 101 24 4.0 4.0 0.00 0.00 0.00 36 1012.5
20260905224003 101 269 1.0 3.0 0.00 0.00 0.00 36 1012.5
20260905223501 101 94 2.0 3.0 0.00 0.00 0.00 36 1012.4
20260905222956 101 260 1.0 4.0 0.00 0.00 0.00 35 1012.5
20260905222456 102 131 0.0 2.0 0.00 0.00 0.00 34 1012.6
20260905221951 102 283 2.0 3.0 0.00 0.00 0.00 34 1012.5
20260905221448 102 179 1.0 2.0 0.00 0.00 0.00 34 1012.6
20260905220944 102 329 1.0 3.0 0.00 0.00 0.00 35 1012.6
20260905220439 103 264 1.0 4.0 0.00 0.00 0.00 34 1012.7
20260905215938 103 357 0.0 4.0 0.00 0.00 0.00 34 1012.7
20260905215434 102 159 1.0 7.0 0.00 0.00 0.00 34 1012.8
20260905214930 102 267 0.0 3.0 0.00 0.00 0.00 34 1012.8
20260905214425 103 20 2.0 4.0 0.00 0.00 0.00 34 1013.1
20260905213920 102 73 1.0 9.0 0.00 0.00 0.00 35 1013.1
20260905213416 102 235 2.0 3.0 0.00 0.00 0.00 34 1013.0
20260905212911 102 263 3.0 4.0 0.00 0.00 0.00 33 1013.4
20260905212406 101 29 1.0 8.0 0.00 0.00 0.00 36 1013.3
20260905211900 102 319 0.0 4.0 0.00 0.00 0.00 36 1013.5
20260905211355 102 88 3.0 4.0 0.00 0.00 0.00 35 1013.4
20260905210852 102 246 4.0 7.0 0.00 0.00 0.00 35 1013.7
20260905210351 102 230 1.0 3.0 0.00 0.00 0.00 35 1013.5
20260905205850 101 54 3.0 7.0 0.00 0.00 0.00 37 1013.5
20260905205345 102 319 2.0 7.0 0.00 0.00 0.00 36 1013.7
20260905204844 101 251 1.0 6.0 0.00 0.00 0.00 37 1013.6
20260905204340 102 30 1.0 4.0 0.00 0.00 0.00 36 1013.7
20260905203833 101 277 1.0 4.0 0.00 0.00 0.00 36 1013.8
20260905203330 101 110 0.0 7.0 0.00 0.00 0.00 37 1014.0
20260905202825 101 358 0.0 2.0 0.00 0.00 0.00 36 1013.9
20260905202320 102 266 2.0 4.0 0.00 0.00 0.00 36 1014.1
20260905201815 100 47 1.0 4.0 0.00 0.00 0.00 37 1014.1
20260905201311 101 94 0.0 7.0 0.00 0.00 0.00 37 1014.2
20260905200810 101 261 3.0 4.0 0.00 0.00 0.00 36 1014.2
20260905200307 102 87 1.0 6.0 0.00 0.00 0.00 36 1014.5
20260905195804 101 291 1.0 4.0 0.00 0.00 0.00 37 1014.5
20260905195300 101 245 3.0 7.0 0.00 0.00 0.00 36 1014.5
20260905194755 101 201 3.0 7.0 0.00 0.00 0.00 36 1014.6
20260905194254 101 252 3.0 6.0 0.00 0.00 0.00 37 1014.8
20260905193749 100 109 4.0 4.0 0.00 0.00 0.00 38 1014.7
20260905193243 101 109 2.0 4.0 0.00 0.00 0.00 37 1014.8
20260905192738 101 262 4.0 8.0 0.00 0.00 0.00 37 1014.9
20260905192235 100 240 1.0 4.0 0.00 0.00 0.00 38 1014.9
20260905191734 101 145 0.0 4.0 0.00 0.00 0.00 36 1015.1
20260905191232 100 262 4.0 7.0 0.00 0.00 0.00 37 1015.1
20260905190731 101 294 2.0 6.0 0.00 0.00 0.00 38 1015.1
20260905190230 100 245 1.0 3.0 0.00 0.00 0.00 38 1015.2
20260905185729 100 226 1.0 3.0 0.00 0.00 0.00 39 1015.3
20260905185224 99 303 3.0 6.0 0.00 0.00 0.00 38 1015.5
20260905184719 100 57 4.0 6.0 0.00 0.00 0.00 39 1015.6
20260905184217 100 119 1.0 2.0 0.00 0.00 0.00 39 1015.6
20260905183712 100 28 1.0 2.0 0.00 0.00 0.00 39 1015.6
20260905183207 101 344 0.0 2.0 0.00 0.00 0.00 38 1015.7
20260905182701 98 91 0.0 3.0 0.00 0.00 0.00 42 1015.8
20260905182200 100 53 4.0 6.0 0.00 0.00 0.00 40 1015.9
20260905181655 100 304 5.0 7.0 0.00 0.00 0.00 39 1015.9
20260905181149 99 24 4.0 7.0 0.00 0.00 0.00 39 1015.9
20260905180644 97 204 1.0 2.0 0.00 0.00 0.00 42 1015.9
20260905180139 98 259 3.0 6.0 0.00 0.00 0.00 42 1015.8
20260905175638 98 92 2.0 3.0 0.00 0.00 0.00 42 1015.8
20260905175134 98 51 2.0 3.0 0.00 0.00 0.00 44 1016.1
20260905174629 98 240 1.0 3.0 0.00 0.00 0.00 42 1016.3
20260905174125 98 9 3.0 4.0 0.00 0.00 0.00 44 1016.4
20260905173620 97 78 2.0 4.0 0.00 0.00 0.00 43 1016.3
20260905173115 98 229 3.0 4.0 0.00 0.00 0.00 42 1016.4
20260905172609 96 249 1.0 4.0 0.00 0.00 0.00 44 1016.4
20260905172104 98 48 3.0 4.0 0.00 0.00 0.00 43 1016.4
20260905171601 98 221 3.0 6.0 0.00 0.00 0.00 43 1016.5
20260905171056 96 30 0.0 3.0 0.00 0.00 0.00 45 1016.6
20260905170553 97 49 3.0 6.0 0.00 0.00 0.00 46 1016.5
20260905170048 97 180 1.0 3.0 0.00 0.00 0.00 45 1016.6
20260905165543 96 225 4.0 7.0 0.00 0.00 0.00 45 1016.5
20260905165037 96 161 0.0 4.0 0.00 0.00 0.00 45 1016.4
20260905164532 96 48 1.0 3.0 0.00 0.00 0.00 45 1016.6
20260905164027 97 305 5.0 6.0 0.00 0.00 0.00 45 1016.7
20260905163523 98 152 1.0 2.0 0.00 0.00 0.00 43 1016.7
20260905163019 96 232 1.0 2.0 0.00 0.00 0.00 45 1016.7
20260905162515 96 234 1.0 4.0 0.00 0.00 0.00 46 1016.6
20260905162009 96 64 0.0 3.0 0.00 0.00 0.00 46 1016.7
20260905161508 96 262 1.0 3.0 0.00 0.00 0.00 45 1016.7
20260905161006 95 268 2.0 3.0 0.00 0.00 0.00 47 1016.8
20260905160500 94 279 3.0 4.0 0.00 0.00 0.00 48 1016.7
20260905160000 94 224 1.0 4.0 0.00 0.00 0.00 48 1016.7
20260905155455 94 232 2.0 4.0 0.00 0.00 0.00 48 1016.5
20260905154953 94 235 2.0 4.0 0.00 0.00 0.00 50 1016.4
20260905154448 93 279 2.0 4.0 0.00 0.00 0.00 50 1016.5
20260905153943 93 199 2.0 3.0 0.00 0.00 0.00 50 1016.5
20260905153440 92 93 2.0 6.0 0.00 0.00 0.00 51 1016.6
20260905152939 93 225 4.0 6.0 0.00 0.00 0.00 50 1016.5
20260905152439 92 133 0.0 1.0 0.00 0.00 0.00 51 1016.4
20260905151934 92 155 2.0 4.0 0.00 0.00 0.00 51 1016.5
20260905151430 92 188 1.0 3.0 0.00 0.00 0.00 52 1016.4
20260905150925 91 254 2.0 4.0 0.00 0.00 0.00 53 1016.4
20260905150424 90 35 0.0 3.0 0.00 0.00 0.00 54 1016.4
20260905145920 91 237 2.0 4.0 0.00 0.00 0.00 53 1016.5
20260905145415 90 320 2.0 4.0 0.00 0.00 0.00 54 1016.6
20260905144909 89 308 0.0 3.0 0.00 0.00 0.00 54 1016.5
20260905144405 89 235 3.0 4.0 0.00 0.00 0.00 55 1016.4
20260905143903 89 261 3.0 3.0 0.00 0.00 0.00 55 1016.3
20260905143357 89 307 1.0 3.0 0.00 0.00 0.00 56 1016.4
20260905142852 88 138 1.0 4.0 0.00 0.00 0.00 56 1016.4
20260905142350 88 238 1.0 4.0 0.00 0.00 0.00 57 1016.5
20260905141847 87 254 1.0 3.0 0.00 0.00 0.00 58 1016.3
20260905141342 87 114 1.0 2.0 0.00 0.00 0.00 58 1016.2
20260905140838 87 322 1.0 2.0 0.00 0.00 0.00 60 1016.3
20260905140337 86 273 1.0 3.0 0.00 0.00 0.00 61 1016.3
20260905135835 86 226 0.0 3.0 0.00 0.00 0.00 61 1016.3
20260905135331 85 172 1.0 2.0 0.00 0.00 0.00 61 1016.6
20260905134827 85 184 2.0 3.0 0.00 0.00 0.00 61 1016.2
20260905134320 84 240 0.0 3.0 0.00 0.00 0.00 63 1016.2
20260905133815 84 171 2.0 3.0 0.00 0.00 0.00 63 1015.9
20260905133310 84 82 1.0 1.0 0.00 0.00 0.00 64 1015.9
20260905132809 83 300 0.0 3.0 0.00 0.00 0.00 65 1016.4
20260905132306 83 288 1.0 2.0 0.00 0.00 0.00 65 1016.1
20260905131759 82 265 2.0 3.0 0.00 0.00 0.00 66 1016.2
20260905131255 81 259 1.0 2.0 0.00 0.00 0.00 67 1016.2
20260905130750 81 312 0.0 2.0 0.00 0.00 0.00 68 1015.9
20260905130249 81 207 2.0 2.0 0.00 0.00 0.00 67 1016.2
20260905125744 81 250 1.0 1.0 0.00 0.00 0.00 68 1015.9
20260905125239 80 87 1.0 1.0 0.00 0.00 0.00 68 1015.6
20260905124736 80 211 0.0 2.0 0.00 0.00 0.00 68 1015.7
20260905124231 80 249 1.0 2.0 0.00 0.00 0.00 68 1015.8
20260905123726 80 268 0.0 2.0 0.00 0.00 0.00 69 1015.7
20260905123223 80 256 0.0 1.0 0.00 0.00 0.00 69 1015.5
20260905122723 80 74 1.0 2.0 0.00 0.00 0.00 69 1015.7
20260905122217 80 90 0.0 1.0 0.00 0.00 0.00 70 1015.4
20260905121712 80 90 0.0 1.0 0.00 0.00 0.00 70 1015.7
20260905121208 80 90 0.0 0.0 0.00 0.00 0.00 69 1015.5
20260905120707 80 90 0.0 0.0 0.00 0.00 0.00 69 1015.4
20260905120201 80 90 0.0 1.0 0.00 0.00 0.00 69 1015.3
20260905115656 80 287 0.0 0.0 0.00 0.00 0.00 69 1015.5
20260905115151 80 185 0.0 0.0 0.00 0.00 0.00 68 1015.2
20260905114651 80 189 0.0 1.0 0.00 0.00 0.00 68 1015.1
20260905114149 80 183 1.0 1.0 0.00 0.00 0.00 68 1015.3
20260905113643 80 278 0.0 1.0 0.00 0.00 0.00 68 1015.1
20260905113139 81 183 0.0 1.0 0.00 0.00 0.00 67 1015.3
20260905112633 81 196 0.0 0.0 0.00 0.00 0.00 67 1015.2
20260905112129 81 253 0.0 3.0 0.00 0.00 0.00 67 1015.3
20260905111624 81 207 0.0 1.0 0.00 0.00 0.00 66 1015.4
20260905111123 81 200 0.0 2.0 0.00 0.00 0.00 66 1015.2
20260905110622 82 248 0.0 2.0 0.00 0.00 0.00 66 1015.5
20260905110117 82 296 0.0 1.0 0.00 0.00 0.00 65 1015.6
20260905105618 82 236 1.0 2.0 0.00 0.00 0.00 65 1015.3
20260905105116 82 258 0.0 3.0 0.00 0.00 0.00 65 1015.4
20260905104612 82 54 0.0 3.0 0.00 0.00 0.00 64 1015.0
20260905104107 82 292 1.0 3.0 0.00 0.00 0.00 64 1015.3
20260905103602 82 258 2.0 3.0 0.00 0.00 0.00 64 1015.3
20260905103058 83 286 0.0 1.0 0.00 0.00 0.00 64 1015.5
20260905102548 83 26 1.0 2.0 0.00 0.00 0.00 63 1015.2
20260905102045 83 47 0.0 1.0 0.00 0.00 0.00 63 1015.4
20260905101543 83 198 2.0 2.0 0.00 0.00 0.00 63 1015.3
20260905101041 83 257 1.0 2.0 0.00 0.00 0.00 63 1015.1